星链-4153 (STARLINK-4153 )

导读 | 豆包AI

STARLINK-4153是美国SpaceX公司星链(Starlink)星座中的一颗互联网通信卫星,于2022年7月7日由猎鹰9号火箭发射。该卫星属于星链组网卫星,运行在近地轨道,旨在为全球提供高速低延迟宽带互联网服务,是SpaceX大规模卫星互联网部署进程中的一员,助力星链服务覆盖更多国家和地区。

Basic Information
目录编号:
53037
目录名称:
STARLINK-4153
国际标识:
2022-076BD
轨道中心:
EARTH
卫星名称:
星链-4153
卫星全名:
星链-4153 (STARLINK-4153 )
卫星状态:
在轨 (已飞行1393 天)
发射日期:
2022-07-07 UTC
国别 :
美国 (US)
星等 :
--
Orbit Information
数据来源 国际轨道数据 AOE轨道数据
星历时间 2026-04-30T22:36:34+0800
7小时前
查看轨道信息
2026-04-26T07:00:00+0800
4天前
查看轨道信息
半长轴 6917.876km 6917.827km
偏心率 0.000111 0.0001081
轨道倾角 53.218° 53.216°
近地点辐角 79.977° 53.187°
升交点赤经 201.047° 221.924°
平近点角 280.135° 233.137°
近地点 538.971km 538.942km
远地点 540.507km 540.438km
周期 95.437分钟 95.436分钟
每日圈数 15.088416 15.088576
Detailed Information
固有亮度:
5
最大亮度:
2.5
卫星平台:
Starlink v1.5
覆盖范围:
全球
运营商:
太空探索技术公司
运营商所在国:
美国
制造商(研发单位):
太空探索技术公司
制造商所在国:
美国
使用方式:
暂无
Satellite Introduction
星链(Starlink)计划是由太空探索技术公司(SpaceX)提出的一个巨型低轨卫星互联网星座项目,计划在2019年至2024年间在太空搭建由约1.2万颗卫星组成的“星链”网络,其中1584颗将部署在地球上空550千米处的近地轨道,并从2020年开始工作。该卫星仍在工作。
2D Orbit Map
3D Orbit Map
Orbit Altitude Analysis Chart
Orbit Inclination Analysis Chart
Orbit Comprehensive Analysis Chart
View Comprehensive Chart